User: anonymous   Login
Location: Unspecified
(0.0000°N, 0.0000°E)
Time: 06:22:41
(UTC+00:00)
Language:

BEESAT 4 - Orbit

View from above orbital plane
View from above orbital plane
View from above satellite
View from above satellite

Ground track
Ground track

The orbit data is extracted from the following two-line orbital elements,

1 41619U 16040W   18175.23457605 +.00001669 +00000-0 +75765-4 0  9992
2 41619 097.4146 238.2840 0011061 197.5316 162.5540 15.22147997099167
Epoch (UTC): 24 June 2018 05:37:47
Eccentricity: 0.0011061
inclination: 97.4146°
perigee height: 492 km
apogee height: 507 km
right ascension of ascending node: 238.2840°
argument of perigee: 197.5316°
revolutions per day: 15.22147997
mean anomaly at epoch: 162.5540°
orbit number at epoch: 9916

The dashed part of the orbit path shows where the satellite is in the earth's shadow,  

DLR